Time,TemperatureF,DewpointF,PressureIn,WindDirection,WindDirectionDegrees,WindSpeedMPH,WindSpeedGustMPH,Humidity,HourlyPrecipIn,Conditions,Clouds,dailyrainin,SoftwareType,DateUTC
2013-01-12 00:09:00,19.3,-5.0,29.99,NW,326,0.0,2.0,34,0.00,,,0.00,weatherlink.com 1.10,2013-01-12 07:09:00,
2013-01-12 00:24:00,19.2,-4.0,29.99,North,360,1.0,1.0,35,0.00,,,0.00,weatherlink.com 1.10,2013-01-12 07:24:00,
2013-01-12 00:39:00,18.6,-5.0,30.00,North,349,0.0,3.0,35,0.00,,,0.00,weatherlink.com 1.10,2013-01-12 07:39:00,
2013-01-12 00:54:00,17.7,-6.0,30.00,North,349,0.0,1.0,35,0.00,,,0.00,weatherlink.com 1.10,2013-01-12 07:54:00,
2013-01-12 01:09:00,16.8,-5.0,30.00,North,349,0.0,1.0,37,0.00,,,0.00,weatherlink.com 1.10,2013-01-12 08:09:00,
2013-01-12 01:24:00,16.4,-5.0,30.00,North,349,0.0,1.0,39,0.00,,,0.00,weatherlink.com 1.10,2013-01-12 08:24:00,
2013-01-12 01:39:00,16.3,-4.0,30.00,NW,324,0.0,1.0,40,0.00,,,0.00,weatherlink.com 1.10,2013-01-12 08:39:00,
2013-01-12 01:54:00,18.5,-4.0,30.00,East,94,0.0,1.0,37,0.00,,,0.00,weatherlink.com 1.10,2013-01-12 08:54:00,
2013-01-12 02:09:00,20.0,3.0,30.00,East,94,0.0,0.0,47,0.00,,,0.00,weatherlink.com 1.10,2013-01-12 09:09:00,
2013-01-12 02:24:00,18.0,-3.0,30.01,East,94,0.0,1.0,39,0.00,,,0.00,weatherlink.com 1.10,2013-01-12 09:24:00,
2013-01-12 02:39:00,18.8,-2.0,30.02,East,94,0.0,0.0,40,0.00,,,0.00,weatherlink.com 1.10,2013-01-12 09:39:00,
2013-01-12 02:54:00,17.7,-4.0,30.02,NW,326,0.0,1.0,38,0.00,,,0.00,weatherlink.com 1.10,2013-01-12 09:54:00,
2013-01-12 03:10:00,16.6,-4.0,30.02,NW,326,0.0,1.0,40,0.00,,,0.00,weatherlink.com 1.10,2013-01-12 10:10:00,
2013-01-12 03:25:00,15.6,-1.0,30.02,NNW,331,0.0,2.0,48,0.00,,,0.00,weatherlink.com 1.10,2013-01-12 10:25:00,
2013-01-12 03:40:00,15.5,-2.0,30.02,NNW,337,0.0,0.0,47,0.00,,,0.00,weatherlink.com 1.10,2013-01-12 10:40:00,
2013-01-12 03:55:00,15.7,-2.0,30.01,East,82,0.0,0.0,46,0.00,,,0.00,weatherlink.com 1.10,2013-01-12 10:55:00,
2013-01-12 04:10:00,16.7,-1.0,30.01,East,82,0.0,0.0,46,0.00,,,0.00,weatherlink.com 1.10,2013-01-12 11:10:00,
2013-01-12 04:25:00,15.5,-1.0,30.01,East,82,0.0,0.0,49,0.00,,,0.00,weatherlink.com 1.10,2013-01-12 11:25:00,
2013-01-12 04:40:00,17.1,2.0,30.01,East,82,0.0,0.0,51,0.00,,,0.00,weatherlink.com 1.10,2013-01-12 11:40:00,
2013-01-12 04:55:00,14.1,-4.0,30.02,East,82,0.0,0.0,45,0.00,,,0.00,weatherlink.com 1.10,2013-01-12 11:55:00,
2013-01-12 05:10:00,15.1,-3.0,30.02,East,82,0.0,0.0,44,0.00,,,0.00,weatherlink.com 1.10,2013-01-12 12:10:00,
2013-01-12 05:25:00,13.4,-3.0,30.03,East,82,0.0,0.0,49,0.00,,,0.00,weatherlink.com 1.10,2013-01-12 12:25:00,
2013-01-12 05:40:00,16.0,1.0,30.04,East,82,0.0,1.0,51,0.00,,,0.00,weatherlink.com 1.10,2013-01-12 12:40:00,
2013-01-12 05:55:00,16.7,-1.0,30.05,East,82,0.0,1.0,46,0.00,,,0.00,weatherlink.com 1.10,2013-01-12 12:55:00,
2013-01-12 06:10:00,13.6,-2.0,30.06,East,82,0.0,0.0,51,0.00,,,0.00,weatherlink.com 1.10,2013-01-12 13:10:00,
2013-01-12 06:26:00,12.1,-4.0,30.07,East,82,0.0,0.0,49,0.00,,,0.00,weatherlink.com 1.10,2013-01-12 13:26:00,
2013-01-12 06:41:00,10.8,-3.0,30.09,East,82,0.0,0.0,53,0.00,,,0.00,weatherlink.com 1.10,2013-01-12 13:41:00,
2013-01-12 06:56:00,11.8,-2.0,30.09,East,82,0.0,1.0,53,0.00,,,0.00,weatherlink.com 1.10,2013-01-12 13:56:00,
2013-01-12 07:11:00,11.1,-4.0,30.10,North,352,0.0,1.0,51,0.00,,,0.00,weatherlink.com 1.10,2013-01-12 14:11:00,
2013-01-12 07:26:00,10.2,-5.0,30.11,North,360,0.0,1.0,51,0.00,,,0.00,weatherlink.com 1.10,2013-01-12 14:26:00,
2013-01-12 07:41:00,9.7,-5.0,30.12,North,6,1.0,3.0,52,0.00,,,0.00,weatherlink.com 1.10,2013-01-12 14:41:00,
2013-01-12 07:56:00,10.2,-4.0,30.13,NNW,335,0.0,2.0,52,0.00,,,0.00,weatherlink.com 1.10,2013-01-12 14:56:00,
2013-01-12 08:11:00,12.6,-3.0,30.14,NNE,13,2.0,2.0,50,0.00,,,0.00,weatherlink.com 1.10,2013-01-12 15:11:00,
2013-01-12 08:26:00,14.2,-3.0,30.15,North,9,1.0,3.0,47,0.00,,,0.00,weatherlink.com 1.10,2013-01-12 15:26:00,
2013-01-12 08:41:00,15.2,-3.0,30.16,North,4,2.0,3.0,44,0.00,,,0.00,weatherlink.com 1.10,2013-01-12 15:41:00,
2013-01-12 08:56:00,15.9,-3.0,30.16,North,354,4.0,4.0,43,0.00,,,0.00,weatherlink.com 1.10,2013-01-12 15:56:00,
2013-01-12 09:11:00,16.3,-3.0,30.16,North,8,1.0,5.0,43,0.00,,,0.00,weatherlink.com 1.10,2013-01-12 16:11:00,
2013-01-12 09:26:00,17.0,-3.0,30.16,WNW,300,2.0,7.0,42,0.00,,,0.00,weatherlink.com 1.10,2013-01-12 16:26:00,
2013-01-12 09:41:00,17.9,-2.0,30.16,NNW,328,1.0,5.0,41,0.00,,,0.00,weatherlink.com 1.10,2013-01-12 16:41:00,
2013-01-12 09:57:00,18.5,-3.0,30.16,NNW,331,2.0,7.0,39,0.00,,,0.00,weatherlink.com 1.10,2013-01-12 16:57:00,
2013-01-12 10:12:00,19.8,-2.0,30.16,North,358,3.0,7.0,38,0.00,,,0.00,weatherlink.com 1.10,2013-01-12 17:12:00,
2013-01-12 10:27:00,21.5,-2.0,30.15,NE,37,2.0,7.0,36,0.00,,,0.00,weatherlink.com 1.10,2013-01-12 17:27:00,
2013-01-12 10:42:00,23.3,-1.0,30.15,North,359,1.0,8.0,35,0.00,,,0.00,weatherlink.com 1.10,2013-01-12 17:42:00,
2013-01-12 10:57:00,24.6,-1.0,30.14,NNW,334,1.0,4.0,33,0.00,,,0.00,weatherlink.com 1.10,2013-01-12 17:57:00,
2013-01-12 11:12:00,25.5,-1.0,30.13,NNE,31,2.0,4.0,32,0.00,,,0.00,weatherlink.com 1.10,2013-01-12 18:12:00,
2013-01-12 11:27:00,26.0,0.0,30.12,NE,34,1.0,4.0,32,0.00,,,0.00,weatherlink.com 1.10,2013-01-12 18:27:00,
2013-01-12 11:42:00,27.2,-1.0,30.11,SSW,193,0.0,3.0,29,0.00,,,0.00,weatherlink.com 1.10,2013-01-12 18:42:00,
2013-01-12 11:57:00,28.3,-3.0,30.10,NNW,330,2.0,4.0,26,0.00,,,0.00,weatherlink.com 1.10,2013-01-12 18:57:00,
2013-01-12 12:12:00,28.8,-3.0,30.09,WSW,243,2.0,3.0,25,0.00,,,0.00,weatherlink.com 1.10,2013-01-12 19:12:00,
2013-01-12 12:27:00,30.3,-4.0,30.08,North,349,0.0,3.0,23,0.00,,,0.00,weatherlink.com 1.10,2013-01-12 19:27:00,
2013-01-12 12:42:00,31.2,-3.0,30.07,SW,231,0.0,3.0,23,0.00,,,0.00,weatherlink.com 1.10,2013-01-12 19:42:00,
2013-01-12 12:57:00,32.5,-4.0,30.07,WSW,250,3.0,3.0,21,0.00,,,0.00,weatherlink.com 1.10,2013-01-12 19:57:00,
2013-01-12 13:13:00,33.1,-4.0,30.07,West,260,3.0,4.0,20,0.00,,,0.00,weatherlink.com 1.10,2013-01-12 20:13:00,
2013-01-12 13:28:00,33.0,-3.0,30.06,SSE,165,1.0,4.0,21,0.00,,,0.00,weatherlink.com 1.10,2013-01-12 20:28:00,
2013-01-12 13:43:00,32.8,-5.0,30.06,SSW,207,5.0,8.0,19,0.00,,,0.00,weatherlink.com 1.10,2013-01-12 20:43:00,
2013-01-12 14:13:00,31.9,-7.0,30.06,WSW,255,5.0,7.0,18,0.00,,,0.00,weatherlink.com 1.10,2013-01-12 21:13:00,
2013-01-12 14:28:00,31.3,-7.0,30.07,NNW,345,2.0,5.0,19,0.00,,,0.00,weatherlink.com 1.10,2013-01-12 21:28:00,
2013-01-12 14:43:00,31.8,-7.0,30.07,NW,318,3.0,7.0,18,0.00,,,0.00,weatherlink.com 1.10,2013-01-12 21:43:00,
2013-01-12 14:58:00,32.3,-7.0,30.07,NNE,33,3.0,5.0,18,0.00,,,0.00,weatherlink.com 1.10,2013-01-12 21:58:00,
2013-01-12 15:13:00,31.7,-6.0,30.07,WNW,287,0.0,2.0,19,0.00,,,0.00,weatherlink.com 1.10,2013-01-12 22:13:00,
2013-01-12 15:28:00,30.6,-3.0,30.08,North,4,5.0,8.0,23,0.00,,,0.00,weatherlink.com 1.10,2013-01-12 22:28:00,
2013-01-12 15:43:00,29.7,-2.0,30.08,NNW,328,0.0,6.0,25,0.00,,,0.00,weatherlink.com 1.10,2013-01-12 22:43:00,
2013-01-12 15:58:00,29.1,0.0,30.09,North,11,3.0,9.0,29,0.00,,,0.00,weatherlink.com 1.10,2013-01-12 22:58:00,
2013-01-12 16:13:00,28.6,0.0,30.10,West,269,1.0,6.0,29,0.00,,,0.00,weatherlink.com 1.10,2013-01-12 23:13:00,
2013-01-12 16:29:00,28.4,0.0,30.11,NW,326,2.0,10.0,29,0.00,,,0.00,weatherlink.com 1.10,2013-01-12 23:29:00,
2013-01-12 16:44:00,27.9,-2.0,30.12,North,349,3.0,8.0,27,0.00,,,0.00,weatherlink.com 1.10,2013-01-12 23:44:00,
2013-01-12 16:59:00,27.3,-1.0,30.13,WNW,284,2.0,8.0,29,0.00,,,0.00,weatherlink.com 1.10,2013-01-12 23:59:00,
2013-01-12 17:14:00,27.2,-3.0,30.13,NNE,20,2.0,6.0,27,0.00,,,0.00,weatherlink.com 1.10,2013-01-13 00:14:00,
2013-01-12 17:29:00,26.9,-3.0,30.13,NW,306,2.0,11.0,27,0.00,,,0.00,weatherlink.com 1.10,2013-01-13 00:29:00,
2013-01-12 17:44:00,26.6,-5.0,30.14,WNW,293,2.0,7.0,25,0.00,,,0.00,weatherlink.com 1.10,2013-01-13 00:44:00,
2013-01-12 17:59:00,26.4,-6.0,30.15,WNW,290,3.0,8.0,24,0.00,,,0.00,weatherlink.com 1.10,2013-01-13 00:59:00,
2013-01-12 18:14:00,26.2,-8.0,30.15,NNE,12,3.0,7.0,22,0.00,,,0.00,weatherlink.com 1.10,2013-01-13 01:14:00,
2013-01-12 18:29:00,26.0,-10.0,30.15,NW,326,2.0,8.0,20,0.00,,,0.00,weatherlink.com 1.10,2013-01-13 01:29:00,
2013-01-12 18:44:00,25.8,-11.0,30.16,NNE,20,1.0,7.0,19,0.00,,,0.00,weatherlink.com 1.10,2013-01-13 01:44:00,
2013-01-12 18:59:00,25.5,-13.0,30.16,West,276,1.0,4.0,18,0.00,,,0.00,weatherlink.com 1.10,2013-01-13 01:59:00,
2013-01-12 19:14:00,24.9,-12.0,30.18,NW,321,2.0,6.0,19,0.00,,,0.00,weatherlink.com 1.10,2013-01-13 02:14:00,
2013-01-12 19:29:00,24.4,-11.0,30.18,WNW,294,0.0,7.0,20,0.00,,,0.00,weatherlink.com 1.10,2013-01-13 02:29:00,
2013-01-12 19:44:00,23.8,-10.0,30.18,North,352,2.0,4.0,22,0.00,,,0.00,weatherlink.com 1.10,2013-01-13 02:44:00,
2013-01-12 20:00:00,23.3,-10.0,30.19,North,359,2.0,6.0,23,0.00,,,0.00,weatherlink.com 1.10,2013-01-13 03:00:00,
2013-01-12 20:15:00,22.5,-9.0,30.19,NNW,342,2.0,3.0,24,0.00,,,0.00,weatherlink.com 1.10,2013-01-13 03:15:00,
2013-01-12 20:30:00,22.0,-10.0,30.20,NNW,337,0.0,4.0,24,0.00,,,0.00,weatherlink.com 1.10,2013-01-13 03:30:00,
2013-01-12 20:45:00,21.0,-11.0,30.20,NNW,337,1.0,2.0,24,0.00,,,0.00,weatherlink.com 1.10,2013-01-13 03:45:00,
2013-01-12 21:00:00,20.4,-10.0,30.21,North,354,1.0,3.0,25,0.00,,,0.00,weatherlink.com 1.10,2013-01-13 04:00:00,
2013-01-12 21:15:00,19.8,-9.0,30.21,NNW,327,1.0,2.0,28,0.00,,,0.00,weatherlink.com 1.10,2013-01-13 04:15:00,
2013-01-12 21:30:00,19.3,-9.0,30.21,NNW,342,0.0,2.0,28,0.00,,,0.00,weatherlink.com 1.10,2013-01-13 04:30:00,
2013-01-12 21:45:00,18.2,-9.0,30.22,NNW,340,0.0,0.0,29,0.00,,,0.00,weatherlink.com 1.10,2013-01-13 04:45:00,
2013-01-12 22:15:00,18.8,-5.0,30.23,North,355,0.0,2.0,35,0.00,,,0.00,weatherlink.com 1.10,2013-01-13 05:15:00,
2013-01-12 22:30:00,18.8,-5.0,30.23,North,350,0.0,4.0,35,0.00,,,0.00,weatherlink.com 1.10,2013-01-13 05:30:00,
2013-01-12 22:45:00,20.0,-4.0,30.24,North,352,0.0,0.0,35,0.00,,,0.00,weatherlink.com 1.10,2013-01-13 05:45:00,
2013-01-12 23:00:00,20.2,3.0,30.24,North,9,0.0,1.0,47,0.00,,,0.00,weatherlink.com 1.10,2013-01-13 06:00:00,
2013-01-12 23:16:00,21.5,2.0,30.25,North,8,0.0,0.0,43,0.00,,,0.00,weatherlink.com 1.10,2013-01-13 06:16:00,
2013-01-12 23:31:00,22.7,3.0,30.25,North,9,0.0,0.0,43,0.00,,,0.00,weatherlink.com 1.10,2013-01-13 06:31:00,
2013-01-12 23:46:00,22.2,-4.0,30.25,North,8,0.0,0.0,32,0.00,,,0.00,weatherlink.com 1.10,2013-01-13 06:46:00,